Location: Shepherdstown, WV
(39.4326°N, 77.8042°W)
Time: 09:49:47
(UTC-04:00)

Transit 2A - All Passes

Search period start: 04 August 2021 00:00
Search period end: 14 August 2021 00:00
Orbit: 598 x 960 km, 66.7° (Epoch: 04 August)

Date Brightness Start Highest point End Pass type
(mag) Time Alt. Az. Time Alt. Az. Time Alt. Az.
04 Aug - 06:13:52 10° SSW 06:18:09 67° ESE 06:22:43 10° NE daylight
04 Aug - 07:59:18 10° W 08:01:53 15° NW 08:04:32 10° N daylight
04 Aug - 14:59:54 10° NNW 15:05:19 49° ENE 15:11:11 10° SE daylight
04 Aug - 16:43:37 10° NW 16:48:18 26° WSW 16:53:15 10° SSW daylight
05 Aug - 05:40:00 10° S 05:44:04 41° ESE 05:48:21 10° NE visible
05 Aug - 07:24:01 10° W 07:27:24 21° NW 07:30:58 10° N daylight
05 Aug - 14:25:55 10° NNW 14:31:01 35° NE 14:36:30 10° ESE daylight
05 Aug - 16:09:01 10° NW 16:14:14 38° WSW 16:19:49 10° S daylight
06 Aug - 05:06:26 10° SSE 05:10:01 26° ESE 05:13:47 10° NE visible
06 Aug - 06:49:08 10° WSW 06:53:01 30° NW 06:57:09 10° N daylight
06 Aug - 13:52:02 10° N 13:56:39 26° NE 14:01:34 10° ESE daylight
06 Aug - 15:34:34 10° NW 15:40:07 55° WSW 15:46:05 10° S daylight
07 Aug - 04:33:21 10° SE 04:36:03 16° ESE 04:38:50 10° ENE visible
07 Aug - 06:14:29 10° SW 06:18:41 45° NW 06:23:12 10° NNE daylight
07 Aug - 13:18:18 10° N 13:22:14 19° NE 13:26:22 10° E daylight
07 Aug - 15:00:17 10° NNW 15:05:58 78° WSW 15:12:06 10° SSE daylight
07 Aug - 16:47:12 10° W 16:48:26 11° WSW 16:49:41 10° WSW daylight
08 Aug - 05:40:06 10° SW 05:44:26 71° WNW 05:49:07 10° NNE visible
08 Aug - 12:44:49 10° N 12:47:44 14° NE 12:50:46 10° ENE daylight
08 Aug - 14:26:06 10° NNW 14:31:46 75° ENE 14:37:54 10° SE daylight
08 Aug - 16:10:55 10° WNW 16:14:28 17° WSW 16:18:10 10° SW daylight
09 Aug - 05:05:56 10° SSW 05:10:16 73° ESE 05:14:55 10° NNE visible
09 Aug - 06:51:38 10° WNW 06:54:03 14° NW 06:56:35 10° N daylight
09 Aug - 12:12:17 10° NNE 12:13:10 10° NE 12:14:03 10° NE daylight
09 Aug - 13:52:00 10° NNW 13:57:31 53° ENE 14:03:29 10° SE daylight
09 Aug - 15:35:52 10° NW 15:40:27 25° WSW 15:45:18 10° SSW daylight
10 Aug - 04:32:01 10° S 04:36:09 45° ESE 04:40:34 10° NE visible
10 Aug - 06:16:17 10° W 06:19:35 20° NW 06:23:04 10° N daylight
10 Aug - 13:18:00 10° NNW 13:23:14 38° NE 13:28:51 10° ESE daylight
10 Aug - 15:01:12 10° NW 15:06:24 35° WSW 15:11:56 10° S daylight
11 Aug - 03:58:23 10° SSE 04:02:07 28° ESE 04:06:02 10° NE visible
11 Aug - 05:41:20 10° WSW 05:45:10 28° NW 05:49:16 10° N visible
11 Aug - 12:44:05 10° N 12:48:53 28° NE 12:53:59 10° ESE daylight
11 Aug - 14:26:45 10° NW 14:32:18 51° WSW 14:38:15 10° S daylight
12 Aug - 03:25:10 10° SSE 03:28:08 18° ESE 03:31:12 10° ENE visible
12 Aug - 05:06:39 10° SW 05:10:49 42° NW 05:15:20 10° NNE visible
12 Aug - 12:10:18 10° N 12:14:27 21° NE 12:18:51 10° E daylight
12 Aug - 13:52:25 10° NNW 13:58:09 73° WSW 14:04:19 10° SSE daylight
13 Aug - 02:53:01 10° ESE 02:54:11 11° ESE 02:55:23 10° E visible
13 Aug - 04:32:12 10° SW 04:36:33 65° WNW 04:41:16 10° NNE visible
13 Aug - 11:36:43 10° N 11:39:59 15° NE 11:43:21 10° ENE daylight
13 Aug - 13:18:14 10° NNW 13:23:58 80° ENE 13:30:10 10° SSE daylight
13 Aug - 15:03:17 10° WNW 15:06:38 16° WSW 15:10:05 10° SW daylight
